Temp
66 66 65 64 63 62 62 61 61 61 60 60 60 59 59 58 58 57 57 57 56 56 56 56 56 56 56 55 55 55 54 54 53 54 54 53 52 51 51 50 50 49 49 49 48 48 47 46 46 46 46 46 45 45 44 44 44 43 43 43 43 42 41 41 40 40 40 40 39
66 65 63 64 63 62 61 60 60 60 60 60 60 59 59 59 58 58 57 57 57 57 57 57 57 56 56 55 55 55 55 54 54 54 54 53 52 52 51 50 50 50 49 49 48 47 47 46 46 46 46 45 45 44 44 44 44 43 43 43 42 42 41 41 41 40 40 40 39
66 64 63 62 61 61 60 59 59 58 58 58 58 58 59 58 58 58 58 58 57 57 57 57 57 57 56 55 55 55 54 54 54 53 53 53 52 51 51 51 50 50 50 49 48 47 47 46 46 46 47 46 45 44 44 44 44 44 43 43 42 42 42 42 41 40 40 40 39
64 63 62 61 61 60 60 60 59 58 58 58 58 58 58 58 58 58 57 57 57 57 57 57 58 58 57 56 55 54 54 54 54 53 53 52 52 51 51 50 50 49 49 48 47 47 46 46 46 46 46 45 44 44 45 45 44 44 43 43 43 42 42 42 41 41 41 40 39
63 62 62 61 61 60 60 59 59 59 59 58 58 58 58 58 58 57 57 58 58 58 57 57 58 58 57 56 54 54 53 54 55 54 53 52 51 51 50 50 49 49 48 47 47 46 46 46 46 46 45 44 45 45 44 44 43 43 43 43 43 43 42 42 42 41 41 41 39
61 61 61 61 61 60 60 60 59 59 59 58 58 58 58 58 57 57 57 57 57 57 56 57 57 57 56 55 54 53 53 53 53 53 52 52 51 50 50 49 49 48 48 47 47 46 46 46 46 46 45 45 44 44 44 44 43 43 42 42 42 42 42 41 41 41 41 40 38
60 60 60 60 60 60 59 59 59 59 58 58 58 58 57 57 57 57 57 57 57 56 57 58 57 56 55 54 54 53 52 52 52 51 51 51 50 50 50 49 48 48 47 47 46 46 46 45 46 46 46 47 46 45 44 43 43 42 42 42 42 42 41 40 40 40 39 38 37
60 60 60 60 60 59 59 59 59 58 58 58 58 57 57 57 56 56 56 55 55 56 56 57 55 54 54 54 54 53 53 52 51 51 51 50 50 50 50 49 49 48 48 47 46 46 45 45 45 45 45 45 45 45 44 43 43 42 41 41 41 41 40 40 39 39 38 37 37
59 59 59 58 58 58 58 59 58 58 58 57 57 57 57 56 56 56 56 55 55 55 55 55 54 54 54 54 54 53 53 53 52 51 51 50 51 50 50 49 49 48 48 47 47 46 46 45 45 45 45 45 45 44 43 43 42 42 41 40 41 41 40 40 39 38 37 36 36
58 57 57 57 57 57 58 57 57 57 56 56 56 56 57 57 56 56 56 55 55 55 54 54 54 54 54 53 53 53 53 53 53 52 51 51 51 51 50 50 49 48 48 47 47 46 45 45 45 44 44 44 43 43 43 42 42 41 41 41 41 41 40 39 38 37 37 37 36
57 57 57 57 56 57 57 56 56 56 56 56 56 56 56 57 56 56 56 55 55 55 54 54 54 54 54 54 54 53 53 53 53 52 52 52 52 51 50 49 49 48 47 47 46 46 46 45 44 44 43 43 43 43 42 42 41 41 40 40 40 40 40 39 39 38 37 37 36
57 57 57 57 56 56 56 56 56 56 56 56 56 56 56 56 56 56 56 55 55 55 54 53 54 54 54 54 54 54 53 53 52 52 52 51 50 50 49 48 48 48 47 47 46 46 46 45 44 44 43 43 42 42 42 41 41 40 40 40 40 39 39 39 38 38 37 37 36
57 57 57 56 56 55 55 55 56 56 56 56 57 57 57 57 57 57 56 55 55 55 54 53 54 54 54 54 53 53 53 52 52 52 51 50 49 49 48 48 47 47 47 47 46 46 46 45 44 43 43 42 42 42 41 41 40 40 40 40 39 39 39 38 37 37 37 37 36
57 57 57 56 55 55 55 55 55 55 55 55 57 57 57 57 57 57 57 55 55 55 54 54 54 54 54 53 53 52 52 52 51 50 50 49 48 48 47 47 47 47 46 46 46 46 45 45 44 43 43 42 42 42 41 41 40 40 40 39 39 39 39 38 37 36 36 36 36
57 57 56 55 55 55 55 54 54 54 54 55 56 57 57 57 57 57 56 55 54 54 54 54 54 53 53 53 52 52 51 50 50 49 49 48 48 47 47 47 47 46 46 46 46 45 45 44 43 43 42 42 42 41 41 41 40 40 39 39 39 39 38 37 36 36 35 35 35
56 56 55 55 54 54 54 54 54 54 54 55 56 56 56 57 57 56 56 55 54 54 53 53 53 52 51 52 51 51 50 49 49 48 48 48 47 47 47 47 47 46 46 45 45 45 45 44 44 43 42 42 41 41 41 40 39 39 38 38 38 37 37 36 36 36 35 35 35
55 55 55 54 54 54 54 54 54 54 55 55 55 55 55 55 55 55 55 55 54 54 53 52 52 51 50 50 50 50 49 49 48 48 48 47 47 47 47 47 47 46 45 44 45 45 45 45 44 43 42 41 41 40 40 39 38 38 37 37 37 36 36 37 37 37 36 36 36
55 55 54 54 54 54 54 54 54 54 54 54 54 54 54 54 54 54 54 54 54 53 52 51 51 50 49 49 49 49 48 48 47 47 47 47 47 47 47 46 47 46 45 43 44 45 45 44 44 43 42 41 40 39 39 38 38 37 37 37 36 36 36 37 37 37 37 37 37
55 55 54 54 54 54 54 54 53 53 53 54 53 53 53 53 53 53 53 53 53 52 52 51 50 49 49 48 48 48 48 47 47 46 46 46 46 46 46 46 46 46 45 42 44 45 45 45 44 43 42 40 39 38 38 37 37 37 37 37 36 36 36 36 36 36 37 36 37
55 54 54 54 54 54 53 53 53 53 53 53 53 53 52 52 52 52 52 52 52 51 51 50 49 49 48 48 47 47 47 46 46 46 46 45 45 45 45 45 46 46 44 41 43 44 44 44 43 42 41 39 38 37 37 37 37 37 37 37 36 36 36 36 35 35 36 35 36
54 54 53 53 53 53 53 53 53 53 53 53 53 52 52 52 52 51 51 50 50 50 49 49 48 48 47 47 46 46 46 46 45 45 45 45 45 45 45 46 46 46 44 41 41 43 43 43 42 41 38 37 36 36 36 36 36 36 36 36 36 36 35 35 35 35 35 35 36
53 53 52 52 53 53 53 52 52 53 53 52 52 52 51 51 51 50 50 49 49 48 48 47 47 47 46 46 46 45 45 45 45 45 45 45 45 45 46 46 46 46 44 41 40 41 42 42 40 38 36 36 35 35 35 35 35 35 35 35 35 35 34 34 34 35 35 35 36
52 52 52 52 52 52 52 52 52 52 52 52 51 51 51 50 50 49 48 48 48 48 47 47 46 46 46 45 45 45 45 45 45 45 45 45 45 45 46 46 45 45 43 41 39 38 38 38 37 36 35 35 34 34 34 35 35 34 34 34 34 34 34 33 34 34 35 35 36
51 51 51 51 51 51 52 52 52 51 51 51 50 50 50 49 49 48 48 47 47 47 47 47 46 45 45 45 45 45 45 44 44 44 45 45 45 45 45 45 45 44 43 41 40 39 38 37 35 34 34 34 34 33 34 35 34 34 34 34 34 34 34 33 33 34 34 35 36
50 50 50 50 50 51 51 51 51 50 50 49 49 49 49 48 48 47 47 46 46 46 46 46 45 45 45 45 45 44 44 44 44 44 44 44 45 45 45 45 45 44 44 44 47 47 47 45 40 37 35 34 34 35 35 35 35 35 36 36 35 35 34 34 34 34 34 35 35
48 49 49 49 50 50 50 49 49 49 48 48 48 48 48 47 47 47 46 46 45 45 45 45 44 45 45 44 44 44 44 44 44 44 44 45 46 45 45 45 46 44 42 45 49 51 51 51 49 44 38 34 35 36 37 37 37 37 37 37 36 35 35 35 35 35 36 36 36
47 47 48 48 48 48 48 48 48 47 47 47 47 47 47 47 47 46 45 45 45 45 44 44 44 45 46 44 44 43 43 43 43 44 45 46 46 45 45 45 45 41 40 44 49 52 52 52 52 50 45 37 36 37 37 38 37 37 36 36 36 35 35 35 35 36 37 38 38
46 46 46 47 47 46 46 47 47 47 47 46 46 46 46 46 45 45 45 44 44 44 43 43 43 44 43 42 42 42 43 43 43 44 45 45 45 45 45 45 44 42 43 47 50 52 52 53 53 52 50 44 40 39 39 38 38 38 38 37 37 36 36 36 36 37 38 38 38
44 45 45 45 45 45 46 46 46 46 46 46 46 45 45 45 44 44 44 44 43 43 42 42 43 42 41 41 41 41 42 43 43 44 44 44 45 45 45 45 43 43 46 50 51 52 52 52 52 52 52 51 46 43 41 41 40 40 39 38 38 37 37 37 37 38 38 38 38
43 43 44 44 44 45 45 45 46 46 46 46 45 45 44 44 44 43 43 43 42 42 42 41 41 41 41 40 40 41 42 42 43 44 44 45 45 45 45 46 44 43 45 51 52 52 52 52 52 52 52 52 49 46 43 42 41 39 39 39 38 37 36 37 36 37 37 38 37
42 42 43 44 44 44 45 45 45 45 45 45 44 44 43 43 43 42 42 42 42 42 43 42 41 41 40 40 40 41 42 43 44 44 44 44 46 46 45 45 43 42 44 50 51 52 52 52 52 52 52 52 50 47 44 43 41 40 39 39 37 36 36 36 36 36 36 36 37
42 42 43 43 44 44 44 45 45 45 45 44 43 43 43 42 41 41 41 41 42 42 42 41 41 40 40 41 41 42 43 43 44 44 44 44 44 44 44 44 44 43 44 49 51 52 52 52 52 52 52 52 50 47 44 43 42 41 39 38 37 36 36 38 38 37 36 36 37
42 42 42 43 43 43 44 44 44 44 44 43 43 42 42 41 41 41 41 41 41 41 40 40 40 41 41 41 42 43 44 44 44 45 45 45 44 43 43 44 45 45 47 50 51 52 52 52 52 52 52 52 50 47 44 42 42 41 40 38 37 36 36 36 37 37 37 37 38
42 42 42 42 42 43 43 43 43 43 43 42 42 42 41 40 40 40 41 42 41 41 40 40 40 41 41 42 43 43 44 46 45 44 44 43 43 43 43 44 45 47 50 51 51 52 52 52 52 52 52 52 50 46 43 41 41 40 39 38 37 37 37 37 36 36 36 37 38
42 42 42 42 42 42 42 42 42 42 42 42 41 41 40 40 40 40 41 43 42 41 40 40 40 41 41 42 43 43 44 45 44 44 43 42 42 42 42 42 43 46 49 51 51 52 52 52 52 52 52 51 48 45 42 40 40 39 38 37 37 37 38 38 37 36 36 36 37
42 42 42 42 42 42 42 42 42 41 41 41 41 40 40 40 39 40 41 43 42 40 39 39 40 40 41 41 42 43 43 43 43 43 43 43 42 42 42 42 42 44 48 50 51 51 52 52 52 52 51 50 47 44 42 40 40 38 37 37 37 37 37 38 38 37 35 35 35
43 43 43 43 42 42 42 42 41 41 41 40 40 40 40 40 39 40 41 42 40 39 39 39 39 40 41 42 42 42 43 42 43 43 44 44 43 42 42 41 41 43 46 49 50 51 51 52 52 52 51 48 45 42 41 40 39 38 37 36 36 36 37 38 38 37 35 34 35
43 43 43 43 43 42 42 42 41 41 41 40 40 40 40 39 39 39 40 42 39 38 38 39 39 40 41 42 42 42 42 42 43 43 43 43 43 42 41 41 41 42 44 48 49 50 51 51 52 51 50 47 43 41 40 39 38 37 37 37 37 36 36 37 37 37 36 34 38
44 44 44 43 43 42 42 42 41 41 41 41 40 40 40 39 38 39 40 41 39 38 39 39 39 40 41 42 42 42 42 42 42 42 43 42 42 43 43 41 41 42 44 47 49 50 50 51 51 51 50 48 44 42 40 39 37 36 36 37 37 36 35 36 37 36 36 35 41
45 44 44 44 43 43 42 42 41 41 41 40 40 40 40 40 40 41 41 40 39 39 39 40 40 41 42 43 42 41 41 41 40 41 42 42 43 45 45 43 42 42 43 47 48 49 50 51 51 51 50 48 44 42 40 38 36 36 36 37 37 36 36 36 36 36 35 34 39
44 44 43 43 43 42 42 42 41 41 40 40 40 40 41 42 41 41 40 39 40 40 40 41 41 41 42 43 42 40 40 40 40 40 41 42 43 44 45 43 42 41 42 45 47 49 50 50 50 51 50 48 44 41 39 38 36 36 35 36 36 36 36 35 35 35 34 34 35
MSLP
1016.26 1016.34 1016.46 1016.70 1016.90 1017.06 1017.26 1017.50 1017.62 1017.82 1018.06 1018.22 1018.46 1018.66 1018.86 1019.06 1019.34 1019.50 1019.70 1019.90 1020.06 1020.18 1020.34 1020.50 1020.66 1020.78 1020.90 1021.06 1021.18 1021.26 1021.38 1021.50 1021.62 1021.74 1021.86 1021.98 1022.10 1022.22 1022.34 1022.42 1022.46 1022.58 1022.66 1022.78 1022.90 1023.02 1023.14 1023.22 1023.34 1023.50 1023.62 1023.70 1023.78 1023.90 1023.94 1023.94 1024.02 1024.10 1024.18 1024.26 1024.34 1024.42 1024.46 1024.58 1024.62 1024.62 1024.62 1024.66 1024.62
1016.18 1016.26 1016.38 1016.54 1016.74 1016.94 1017.18 1017.38 1017.58 1017.78 1017.90 1018.06 1018.26 1018.46 1018.66 1018.90 1019.10 1019.34 1019.50 1019.66 1019.78 1019.98 1020.18 1020.34 1020.46 1020.62 1020.78 1020.90 1021.02 1021.14 1021.26 1021.38 1021.50 1021.62 1021.78 1021.90 1022.02 1022.14 1022.22 1022.30 1022.38 1022.46 1022.58 1022.66 1022.82 1022.94 1023.06 1023.18 1023.34 1023.46 1023.58 1023.66 1023.78 1023.82 1023.86 1023.86 1023.90 1024.02 1024.10 1024.18 1024.22 1024.30 1024.34 1024.46 1024.46 1024.46 1024.46 1024.50 1024.50
1016.06 1016.18 1016.34 1016.54 1016.74 1016.90 1017.10 1017.34 1017.50 1017.70 1017.86 1018.02 1018.18 1018.34 1018.50 1018.70 1018.90 1019.10 1019.30 1019.46 1019.62 1019.78 1019.94 1020.14 1020.30 1020.46 1020.58 1020.74 1020.90 1021.02 1021.14 1021.22 1021.34 1021.50 1021.66 1021.78 1021.90 1022.06 1022.14 1022.22 1022.30 1022.34 1022.46 1022.58 1022.74 1022.86 1022.94 1023.06 1023.18 1023.34 1023.46 1023.58 1023.66 1023.78 1023.78 1023.78 1023.78 1023.90 1024.06 1024.10 1024.10 1024.18 1024.22 1024.30 1024.34 1024.34 1024.38 1024.38 1024.38
1015.94 1016.10 1016.30 1016.50 1016.66 1016.82 1017.02 1017.18 1017.42 1017.62 1017.78 1017.90 1018.06 1018.26 1018.42 1018.58 1018.74 1018.90 1019.10 1019.26 1019.50 1019.62 1019.78 1019.90 1020.10 1020.22 1020.38 1020.58 1020.78 1020.90 1020.98 1021.10 1021.22 1021.38 1021.58 1021.70 1021.82 1021.94 1022.06 1022.10 1022.18 1022.30 1022.38 1022.46 1022.62 1022.78 1022.86 1022.98 1023.10 1023.18 1023.34 1023.46 1023.58 1023.62 1023.66 1023.70 1023.74 1023.82 1023.90 1023.94 1023.98 1024.06 1024.14 1024.18 1024.18 1024.18 1024.22 1024.26 1024.30
1015.90 1016.06 1016.22 1016.42 1016.54 1016.70 1016.90 1017.10 1017.30 1017.50 1017.66 1017.82 1018.06 1018.22 1018.34 1018.50 1018.62 1018.82 1019.02 1019.18 1019.34 1019.50 1019.62 1019.74 1019.90 1020.06 1020.22 1020.38 1020.62 1020.78 1020.90 1020.98 1021.10 1021.22 1021.42 1021.62 1021.74 1021.82 1021.90 1022.02 1022.10 1022.18 1022.30 1022.38 1022.50 1022.66 1022.78 1022.90 1023.02 1023.14 1023.22 1023.34 1023.42 1023.50 1023.54 1023.58 1023.62 1023.74 1023.78 1023.78 1023.82 1023.90 1023.98 1024.06 1024.10 1024.10 1024.10 1024.18 1024.18
1015.90 1016.02 1016.18 1016.34 1016.50 1016.66 1016.86 1017.06 1017.18 1017.38 1017.58 1017.78 1017.94 1018.14 1018.34 1018.46 1018.62 1018.74 1018.90 1019.06 1019.18 1019.30 1019.42 1019.62 1019.78 1019.90 1020.10 1020.34 1020.46 1020.62 1020.78 1020.90 1021.02 1021.14 1021.34 1021.50 1021.62 1021.74 1021.86 1021.94 1022.02 1022.10 1022.18 1022.30 1022.42 1022.50 1022.62 1022.78 1022.90 1023.02 1023.10 1023.18 1023.30 1023.34 1023.38 1023.42 1023.54 1023.66 1023.70 1023.78 1023.78 1023.78 1023.86 1023.94 1023.98 1023.98 1024.02 1024.06 1024.14
1015.86 1016.02 1016.18 1016.34 1016.46 1016.62 1016.82 1016.98 1017.14 1017.34 1017.50 1017.70 1017.90 1018.06 1018.22 1018.38 1018.50 1018.62 1018.78 1018.90 1019.06 1019.22 1019.34 1019.50 1019.62 1019.82 1020.02 1020.22 1020.38 1020.54 1020.66 1020.82 1020.90 1021.06 1021.18 1021.38 1021.54 1021.70 1021.78 1021.86 1021.90 1022.02 1022.10 1022.18 1022.30 1022.42 1022.54 1022.66 1022.78 1022.90 1023.02 1023.06 1023.18 1023.22 1023.30 1023.34 1023.46 1023.58 1023.66 1023.74 1023.70 1023.70 1023.78 1023.86 1023.86 1023.86 1023.94 1024.06 1024.06
1015.86 1015.98 1016.14 1016.30 1016.42 1016.58 1016.74 1016.90 1017.06 1017.26 1017.50 1017.62 1017.82 1017.98 1018.10 1018.26 1018.42 1018.54 1018.66 1018.82 1018.94 1019.10 1019.26 1019.38 1019.54 1019.70 1019.86 1020.06 1020.22 1020.38 1020.54 1020.70 1020.82 1020.98 1021.10 1021.30 1021.46 1021.58 1021.66 1021.78 1021.86 1021.94 1022.02 1022.10 1022.22 1022.34 1022.46 1022.58 1022.62 1022.78 1022.90 1023.02 1023.10 1023.14 1023.18 1023.26 1023.34 1023.50 1023.62 1023.66 1023.62 1023.62 1023.62 1023.70 1023.74 1023.78 1023.86 1023.94 1023.98
1015.90 1016.06 1016.14 1016.26 1016.38 1016.54 1016.70 1016.86 1017.02 1017.18 1017.38 1017.54 1017.66 1017.82 1017.98 1018.10 1018.30 1018.46 1018.62 1018.74 1018.82 1018.94 1019.10 1019.30 1019.42 1019.58 1019.74 1019.90 1020.10 1020.22 1020.38 1020.54 1020.70 1020.86 1021.02 1021.18 1021.34 1021.50 1021.58 1021.70 1021.78 1021.90 1021.94 1022.06 1022.14 1022.26 1022.38 1022.50 1022.58 1022.66 1022.78 1022.90 1023.02 1023.06 1023.06 1023.18 1023.30 1023.42 1023.50 1023.50 1023.54 1023.54 1023.54 1023.62 1023.62 1023.66 1023.74 1023.78 1023.86
1015.98 1016.06 1016.18 1016.34 1016.46 1016.54 1016.66 1016.82 1016.94 1017.10 1017.26 1017.42 1017.58 1017.70 1017.86 1017.98 1018.14 1018.34 1018.46 1018.58 1018.74 1018.90 1019.06 1019.18 1019.34 1019.50 1019.66 1019.82 1020.02 1020.14 1020.30 1020.42 1020.58 1020.78 1020.94 1021.06 1021.22 1021.34 1021.46 1021.58 1021.66 1021.78 1021.86 1021.94 1022.02 1022.14 1022.30 1022.38 1022.50 1022.62 1022.66 1022.74 1022.86 1022.94 1023.02 1023.06 1023.18 1023.30 1023.34 1023.38 1023.46 1023.50 1023.50 1023.54 1023.54 1023.62 1023.66 1023.66 1023.74
1016.02 1016.10 1016.18 1016.34 1016.46 1016.58 1016.66 1016.86 1016.98 1017.10 1017.22 1017.38 1017.50 1017.62 1017.78 1017.90 1018.06 1018.14 1018.30 1018.46 1018.62 1018.78 1018.90 1019.06 1019.22 1019.42 1019.62 1019.74 1019.90 1020.06 1020.18 1020.34 1020.46 1020.62 1020.82 1020.98 1021.10 1021.22 1021.34 1021.46 1021.54 1021.62 1021.74 1021.86 1021.90 1022.06 1022.18 1022.30 1022.42 1022.54 1022.62 1022.62 1022.74 1022.82 1022.90 1022.98 1023.06 1023.18 1023.18 1023.26 1023.34 1023.38 1023.46 1023.46 1023.46 1023.50 1023.54 1023.58 1023.58
1016.02 1016.10 1016.18 1016.34 1016.46 1016.58 1016.70 1016.86 1017.02 1017.10 1017.22 1017.38 1017.50 1017.58 1017.70 1017.78 1017.90 1018.06 1018.18 1018.38 1018.54 1018.70 1018.82 1018.98 1019.10 1019.30 1019.50 1019.66 1019.82 1019.94 1020.10 1020.30 1020.46 1020.62 1020.78 1020.90 1021.06 1021.18 1021.30 1021.38 1021.50 1021.54 1021.62 1021.74 1021.82 1021.90 1022.06 1022.18 1022.30 1022.46 1022.54 1022.58 1022.62 1022.70 1022.78 1022.90 1022.98 1023.06 1023.10 1023.14 1023.18 1023.30 1023.34 1023.34 1023.34 1023.34 1023.34 1023.42 1023.42
1016.06 1016.14 1016.26 1016.34 1016.46 1016.62 1016.78 1016.90 1017.02 1017.10 1017.22 1017.34 1017.42 1017.50 1017.62 1017.70 1017.82 1017.94 1018.10 1018.30 1018.46 1018.62 1018.78 1018.94 1019.06 1019.18 1019.38 1019.58 1019.74 1019.90 1020.06 1020.22 1020.38 1020.54 1020.70 1020.82 1020.98 1021.14 1021.26 1021.34 1021.42 1021.50 1021.58 1021.66 1021.74 1021.82 1021.94 1022.06 1022.18 1022.30 1022.42 1022.50 1022.54 1022.62 1022.62 1022.74 1022.82 1022.90 1023.02 1023.06 1023.10 1023.18 1023.18 1023.18 1023.18 1023.22 1023.22 1023.30 1023.30
1016.06 1016.18 1016.34 1016.42 1016.54 1016.66 1016.78 1016.90 1017.02 1017.14 1017.26 1017.34 1017.38 1017.46 1017.58 1017.70 1017.78 1017.90 1018.06 1018.18 1018.38 1018.58 1018.74 1018.90 1019.06 1019.18 1019.34 1019.50 1019.70 1019.86 1020.06 1020.18 1020.38 1020.54 1020.66 1020.82 1020.94 1021.06 1021.18 1021.30 1021.34 1021.42 1021.50 1021.58 1021.62 1021.74 1021.82 1021.94 1022.06 1022.18 1022.26 1022.34 1022.42 1022.46 1022.50 1022.58 1022.66 1022.78 1022.86 1022.94 1023.02 1023.06 1023.06 1023.06 1023.06 1023.10 1023.14 1023.18 1023.18
1016.10 1016.22 1016.34 1016.46 1016.58 1016.70 1016.82 1016.94 1017.06 1017.14 1017.26 1017.34 1017.34 1017.42 1017.54 1017.62 1017.74 1017.86 1018.02 1018.18 1018.38 1018.54 1018.74 1018.90 1019.06 1019.18 1019.34 1019.50 1019.62 1019.82 1020.02 1020.18 1020.34 1020.50 1020.66 1020.82 1020.90 1021.02 1021.10 1021.18 1021.26 1021.34 1021.42 1021.50 1021.58 1021.62 1021.66 1021.78 1021.90 1022.02 1022.10 1022.18 1022.30 1022.34 1022.38 1022.42 1022.50 1022.62 1022.66 1022.74 1022.82 1022.86 1022.90 1022.90 1022.94 1022.98 1023.02 1023.06 1023.06
1016.06 1016.18 1016.34 1016.46 1016.58 1016.70 1016.82 1016.94 1017.06 1017.10 1017.18 1017.26 1017.34 1017.38 1017.50 1017.62 1017.70 1017.86 1018.02 1018.18 1018.38 1018.54 1018.74 1018.90 1019.06 1019.22 1019.34 1019.50 1019.62 1019.78 1019.98 1020.18 1020.34 1020.46 1020.62 1020.78 1020.90 1020.94 1021.06 1021.18 1021.22 1021.30 1021.34 1021.46 1021.50 1021.50 1021.58 1021.62 1021.74 1021.82 1021.94 1022.06 1022.14 1022.18 1022.26 1022.34 1022.34 1022.46 1022.50 1022.58 1022.62 1022.66 1022.74 1022.74 1022.78 1022.82 1022.82 1022.86 1022.86
1016.06 1016.18 1016.30 1016.42 1016.54 1016.66 1016.78 1016.90 1016.98 1017.06 1017.14 1017.22 1017.34 1017.38 1017.50 1017.58 1017.74 1017.86 1017.98 1018.18 1018.34 1018.58 1018.78 1018.90 1019.06 1019.22 1019.38 1019.50 1019.62 1019.78 1019.94 1020.10 1020.30 1020.46 1020.58 1020.70 1020.82 1020.90 1021.02 1021.10 1021.18 1021.18 1021.30 1021.38 1021.42 1021.46 1021.50 1021.50 1021.58 1021.66 1021.78 1021.86 1021.94 1022.06 1022.10 1022.18 1022.22 1022.30 1022.34 1022.42 1022.46 1022.46 1022.50 1022.50 1022.58 1022.62 1022.62 1022.66 1022.62
1016.06 1016.14 1016.26 1016.38 1016.50 1016.62 1016.74 1016.82 1016.94 1017.06 1017.14 1017.22 1017.34 1017.38 1017.50 1017.58 1017.74 1017.86 1018.02 1018.14 1018.34 1018.54 1018.78 1018.94 1019.06 1019.18 1019.34 1019.50 1019.62 1019.78 1019.90 1020.06 1020.26 1020.38 1020.54 1020.62 1020.78 1020.86 1020.90 1021.02 1021.06 1021.10 1021.18 1021.26 1021.34 1021.34 1021.38 1021.42 1021.50 1021.58 1021.62 1021.74 1021.82 1021.90 1021.94 1022.02 1022.10 1022.14 1022.18 1022.26 1022.30 1022.30 1022.34 1022.34 1022.34 1022.34 1022.42 1022.42 1022.38
1016.02 1016.14 1016.26 1016.34 1016.46 1016.58 1016.74 1016.82 1016.94 1017.06 1017.18 1017.22 1017.34 1017.38 1017.50 1017.62 1017.70 1017.86 1018.06 1018.18 1018.34 1018.50 1018.74 1018.90 1019.06 1019.18 1019.34 1019.50 1019.66 1019.78 1019.90 1020.06 1020.22 1020.38 1020.50 1020.62 1020.70 1020.78 1020.86 1020.94 1020.98 1021.06 1021.10 1021.18 1021.18 1021.18 1021.26 1021.34 1021.38 1021.46 1021.54 1021.62 1021.70 1021.78 1021.82 1021.90 1021.94 1022.02 1022.06 1022.06 1022.10 1022.14 1022.14 1022.18 1022.18 1022.18 1022.18 1022.18 1022.18
1016.02 1016.10 1016.18 1016.34 1016.46 1016.58 1016.74 1016.86 1016.94 1017.06 1017.18 1017.22 1017.34 1017.46 1017.54 1017.62 1017.78 1017.90 1018.06 1018.18 1018.34 1018.50 1018.70 1018.90 1019.10 1019.26 1019.34 1019.50 1019.66 1019.82 1019.94 1020.06 1020.22 1020.34 1020.46 1020.58 1020.66 1020.74 1020.78 1020.86 1020.90 1020.94 1021.02 1021.10 1021.14 1021.14 1021.14 1021.18 1021.26 1021.34 1021.42 1021.54 1021.62 1021.66 1021.74 1021.78 1021.86 1021.90 1021.90 1021.90 1021.94 1021.94 1021.94 1021.98 1021.98 1022.02 1022.02 1022.02 1022.06
1016.02 1016.06 1016.18 1016.34 1016.46 1016.62 1016.74 1016.90 1016.98 1017.06 1017.18 1017.26 1017.38 1017.50 1017.62 1017.70 1017.82 1017.94 1018.06 1018.18 1018.38 1018.54 1018.74 1018.90 1019.10 1019.26 1019.38 1019.54 1019.70 1019.82 1019.94 1020.06 1020.18 1020.34 1020.46 1020.50 1020.62 1020.66 1020.70 1020.78 1020.82 1020.86 1020.90 1021.06 1021.06 1021.06 1021.06 1021.10 1021.18 1021.26 1021.34 1021.42 1021.50 1021.58 1021.62 1021.70 1021.74 1021.78 1021.78 1021.78 1021.82 1021.78 1021.78 1021.82 1021.82 1021.86 1021.86 1021.86 1021.82
1016.02 1016.06 1016.18 1016.34 1016.46 1016.62 1016.74 1016.90 1016.98 1017.10 1017.22 1017.34 1017.42 1017.54 1017.62 1017.78 1017.90 1018.02 1018.10 1018.22 1018.42 1018.62 1018.78 1018.98 1019.10 1019.26 1019.42 1019.58 1019.74 1019.82 1019.94 1020.06 1020.18 1020.26 1020.38 1020.46 1020.54 1020.58 1020.62 1020.66 1020.78 1020.78 1020.86 1020.94 1020.98 1020.98 1020.98 1021.02 1021.06 1021.18 1021.26 1021.34 1021.42 1021.46 1021.50 1021.58 1021.62 1021.62 1021.66 1021.66 1021.66 1021.66 1021.66 1021.66 1021.66 1021.70 1021.66 1021.66 1021.62
1016.06 1016.14 1016.26 1016.34 1016.50 1016.62 1016.78 1016.90 1017.02 1017.18 1017.26 1017.34 1017.50 1017.62 1017.74 1017.82 1017.94 1018.06 1018.18 1018.34 1018.46 1018.66 1018.86 1019.02 1019.14 1019.30 1019.42 1019.54 1019.70 1019.82 1019.94 1020.06 1020.18 1020.22 1020.34 1020.38 1020.46 1020.50 1020.58 1020.62 1020.66 1020.74 1020.78 1020.82 1020.86 1020.90 1020.98 1021.02 1021.06 1021.06 1021.14 1021.22 1021.30 1021.34 1021.38 1021.46 1021.50 1021.50 1021.54 1021.54 1021.54 1021.54 1021.58 1021.54 1021.50 1021.50 1021.50 1021.50 1021.50
1016.14 1016.22 1016.34 1016.46 1016.62 1016.70 1016.82 1016.94 1017.06 1017.18 1017.34 1017.42 1017.50 1017.62 1017.78 1017.90 1018.02 1018.14 1018.30 1018.42 1018.58 1018.78 1018.90 1019.06 1019.18 1019.30 1019.42 1019.54 1019.66 1019.78 1019.94 1020.06 1020.18 1020.26 1020.30 1020.34 1020.42 1020.46 1020.50 1020.54 1020.58 1020.62 1020.62 1020.66 1020.74 1020.82 1020.90 1020.90 1020.98 1021.06 1021.06 1021.10 1021.18 1021.22 1021.26 1021.30 1021.34 1021.38 1021.42 1021.46 1021.42 1021.42 1021.42 1021.38 1021.34 1021.34 1021.34 1021.30 1021.30
1016.26 1016.34 1016.46 1016.58 1016.70 1016.78 1016.90 1017.02 1017.14 1017.26 1017.34 1017.46 1017.58 1017.70 1017.82 1017.98 1018.10 1018.22 1018.38 1018.54 1018.70 1018.82 1018.98 1019.10 1019.22 1019.34 1019.46 1019.54 1019.66 1019.78 1019.90 1020.02 1020.10 1020.22 1020.30 1020.34 1020.34 1020.38 1020.42 1020.46 1020.46 1020.46 1020.50 1020.50 1020.50 1020.54 1020.58 1020.66 1020.78 1020.86 1020.94 1020.98 1021.02 1021.06 1021.06 1021.14 1021.18 1021.22 1021.22 1021.22 1021.22 1021.26 1021.26 1021.18 1021.18 1021.18 1021.14 1021.06 1021.06
1016.38 1016.50 1016.62 1016.66 1016.78 1016.90 1016.98 1017.10 1017.18 1017.30 1017.42 1017.54 1017.66 1017.78 1017.94 1018.06 1018.18 1018.34 1018.46 1018.62 1018.78 1018.90 1019.06 1019.14 1019.26 1019.34 1019.46 1019.54 1019.66 1019.78 1019.90 1019.94 1020.06 1020.14 1020.22 1020.26 1020.34 1020.34 1020.34 1020.34 1020.34 1020.42 1020.46 1020.38 1020.34 1020.30 1020.34 1020.38 1020.46 1020.58 1020.74 1020.86 1020.86 1020.90 1020.94 1020.98 1020.98 1020.98 1021.02 1021.02 1021.02 1021.06 1021.06 1021.02 1020.90 1020.86 1020.82 1020.78 1020.78
1016.54 1016.62 1016.74 1016.78 1016.90 1017.02 1017.14 1017.18 1017.30 1017.42 1017.54 1017.66 1017.78 1017.90 1018.06 1018.18 1018.30 1018.46 1018.62 1018.78 1018.86 1018.98 1019.10 1019.22 1019.30 1019.34 1019.46 1019.58 1019.70 1019.78 1019.90 1019.94 1020.02 1020.06 1020.14 1020.18 1020.22 1020.30 1020.30 1020.30 1020.26 1020.34 1020.34 1020.30 1020.18 1020.18 1020.14 1020.18 1020.18 1020.22 1020.38 1020.62 1020.66 1020.70 1020.74 1020.74 1020.74 1020.78 1020.78 1020.78 1020.78 1020.78 1020.78 1020.74 1020.66 1020.58 1020.50 1020.46 1020.42
1016.74 1016.82 1016.90 1016.94 1017.06 1017.18 1017.26 1017.34 1017.46 1017.58 1017.70 1017.78 1017.90 1018.06 1018.14 1018.30 1018.42 1018.58 1018.70 1018.86 1018.98 1019.06 1019.18 1019.30 1019.34 1019.38 1019.50 1019.62 1019.70 1019.78 1019.86 1019.90 1019.90 1019.98 1020.06 1020.06 1020.14 1020.18 1020.18 1020.18 1020.14 1020.14 1020.14 1020.06 1020.06 1020.06 1020.02 1019.98 1019.94 1019.94 1020.06 1020.26 1020.38 1020.42 1020.46 1020.46 1020.46 1020.46 1020.50 1020.46 1020.46 1020.46 1020.46 1020.38 1020.34 1020.26 1020.22 1020.18 1020.10
1016.90 1016.94 1017.06 1017.18 1017.26 1017.34 1017.42 1017.50 1017.62 1017.74 1017.82 1017.94 1018.06 1018.14 1018.26 1018.42 1018.54 1018.66 1018.78 1018.90 1019.06 1019.14 1019.26 1019.34 1019.34 1019.42 1019.50 1019.62 1019.70 1019.78 1019.78 1019.86 1019.90 1019.94 1019.98 1020.06 1020.06 1020.06 1020.06 1020.06 1020.02 1019.98 1019.94 1019.90 1019.90 1019.90 1019.82 1019.78 1019.78 1019.78 1019.78 1019.86 1019.98 1020.06 1020.06 1020.10 1020.10 1020.14 1020.14 1020.10 1020.10 1020.14 1020.14 1020.06 1020.02 1020.02 1019.94 1019.90 1019.86
1017.06 1017.14 1017.22 1017.34 1017.42 1017.50 1017.62 1017.66 1017.78 1017.86 1017.94 1018.06 1018.18 1018.34 1018.42 1018.54 1018.70 1018.82 1018.90 1019.06 1019.14 1019.22 1019.26 1019.34 1019.38 1019.50 1019.62 1019.66 1019.70 1019.78 1019.78 1019.82 1019.86 1019.90 1019.90 1019.98 1019.98 1019.94 1019.94 1019.90 1019.90 1019.86 1019.78 1019.78 1019.74 1019.70 1019.62 1019.62 1019.62 1019.58 1019.58 1019.58 1019.62 1019.66 1019.70 1019.78 1019.78 1019.78 1019.82 1019.82 1019.82 1019.82 1019.82 1019.82 1019.78 1019.78 1019.70 1019.66 1019.62
1017.22 1017.34 1017.42 1017.50 1017.62 1017.70 1017.78 1017.82 1017.90 1018.02 1018.10 1018.18 1018.34 1018.46 1018.62 1018.70 1018.82 1018.90 1019.02 1019.06 1019.18 1019.18 1019.22 1019.34 1019.42 1019.50 1019.58 1019.62 1019.66 1019.74 1019.78 1019.78 1019.78 1019.82 1019.86 1019.90 1019.86 1019.82 1019.78 1019.78 1019.78 1019.74 1019.70 1019.62 1019.58 1019.54 1019.50 1019.46 1019.42 1019.38 1019.34 1019.34 1019.38 1019.38 1019.38 1019.42 1019.46 1019.50 1019.50 1019.50 1019.50 1019.50 1019.54 1019.54 1019.54 1019.50 1019.50 1019.46 1019.46
1017.42 1017.50 1017.58 1017.66 1017.78 1017.82 1017.90 1017.94 1018.06 1018.10 1018.18 1018.34 1018.46 1018.62 1018.74 1018.86 1018.94 1018.98 1019.02 1019.06 1019.14 1019.22 1019.30 1019.38 1019.46 1019.54 1019.62 1019.62 1019.66 1019.70 1019.74 1019.78 1019.78 1019.78 1019.78 1019.78 1019.78 1019.78 1019.70 1019.62 1019.62 1019.62 1019.58 1019.50 1019.46 1019.38 1019.34 1019.26 1019.26 1019.18 1019.18 1019.10 1019.14 1019.14 1019.14 1019.14 1019.18 1019.18 1019.18 1019.18 1019.22 1019.26 1019.30 1019.26 1019.26 1019.26 1019.22 1019.22 1019.18
1017.58 1017.62 1017.74 1017.86 1017.90 1017.98 1018.02 1018.06 1018.14 1018.26 1018.34 1018.46 1018.62 1018.74 1018.82 1018.90 1019.02 1019.06 1019.10 1019.10 1019.18 1019.30 1019.38 1019.46 1019.50 1019.58 1019.62 1019.62 1019.66 1019.66 1019.62 1019.62 1019.62 1019.62 1019.62 1019.62 1019.62 1019.62 1019.62 1019.50 1019.50 1019.42 1019.34 1019.34 1019.26 1019.18 1019.14 1019.10 1019.06 1019.02 1018.94 1018.90 1018.90 1018.90 1018.94 1018.90 1018.90 1018.90 1018.90 1018.94 1018.94 1018.98 1019.02 1019.06 1019.06 1019.02 1018.98 1018.98 1018.94
1017.74 1017.78 1017.90 1017.98 1018.06 1018.10 1018.14 1018.18 1018.30 1018.38 1018.50 1018.62 1018.78 1018.86 1018.90 1019.06 1019.10 1019.18 1019.18 1019.18 1019.22 1019.30 1019.34 1019.42 1019.46 1019.50 1019.50 1019.54 1019.58 1019.58 1019.54 1019.50 1019.54 1019.54 1019.54 1019.50 1019.50 1019.50 1019.46 1019.38 1019.30 1019.18 1019.14 1019.10 1019.06 1019.02 1018.94 1018.90 1018.86 1018.78 1018.74 1018.70 1018.66 1018.66 1018.70 1018.70 1018.66 1018.66 1018.70 1018.70 1018.70 1018.74 1018.78 1018.78 1018.78 1018.78 1018.74 1018.70 1018.70
1017.86 1017.90 1018.02 1018.10 1018.14 1018.18 1018.30 1018.34 1018.42 1018.50 1018.66 1018.78 1018.90 1018.94 1019.06 1019.10 1019.18 1019.26 1019.26 1019.22 1019.26 1019.34 1019.34 1019.38 1019.42 1019.46 1019.46 1019.46 1019.50 1019.50 1019.50 1019.50 1019.46 1019.46 1019.46 1019.42 1019.42 1019.38 1019.34 1019.22 1019.10 1019.02 1018.98 1018.94 1018.90 1018.82 1018.78 1018.70 1018.62 1018.58 1018.54 1018.46 1018.46 1018.46 1018.46 1018.46 1018.50 1018.46 1018.50 1018.50 1018.50 1018.50 1018.50 1018.50 1018.50 1018.50 1018.50 1018.50 1018.46
1017.98 1018.06 1018.14 1018.18 1018.26 1018.34 1018.42 1018.46 1018.58 1018.70 1018.82 1018.94 1019.06 1019.10 1019.18 1019.18 1019.26 1019.30 1019.26 1019.22 1019.30 1019.34 1019.42 1019.42 1019.46 1019.50 1019.50 1019.50 1019.50 1019.50 1019.46 1019.42 1019.42 1019.34 1019.34 1019.34 1019.34 1019.26 1019.18 1019.06 1018.94 1018.90 1018.82 1018.78 1018.74 1018.66 1018.58 1018.50 1018.46 1018.34 1018.34 1018.30 1018.30 1018.26 1018.26 1018.30 1018.30 1018.30 1018.34 1018.34 1018.34 1018.30 1018.30 1018.30 1018.30 1018.30 1018.30 1018.26 1018.22
1018.02 1018.10 1018.22 1018.30 1018.38 1018.46 1018.54 1018.62 1018.74 1018.86 1018.94 1019.06 1019.14 1019.18 1019.26 1019.30 1019.30 1019.26 1019.26 1019.26 1019.38 1019.46 1019.50 1019.50 1019.50 1019.50 1019.50 1019.46 1019.42 1019.42 1019.34 1019.34 1019.34 1019.30 1019.22 1019.18 1019.14 1019.10 1019.06 1018.94 1018.86 1018.78 1018.66 1018.62 1018.58 1018.46 1018.38 1018.34 1018.26 1018.18 1018.18 1018.18 1018.10 1018.06 1018.10 1018.10 1018.10 1018.10 1018.14 1018.14 1018.10 1018.06 1018.06 1018.06 1018.06 1018.06 1018.02 1017.98 1017.98
1018.06 1018.18 1018.30 1018.42 1018.50 1018.62 1018.70 1018.78 1018.90 1018.98 1019.06 1019.14 1019.18 1019.18 1019.18 1019.26 1019.30 1019.30 1019.30 1019.30 1019.38 1019.50 1019.54 1019.50 1019.50 1019.50 1019.42 1019.34 1019.34 1019.30 1019.22 1019.18 1019.18 1019.18 1019.14 1019.06 1019.02 1018.94 1018.90 1018.78 1018.70 1018.62 1018.58 1018.46 1018.42 1018.34 1018.22 1018.14 1018.06 1018.06 1018.02 1018.02 1017.94 1017.94 1017.94 1017.94 1017.90 1017.90 1017.90 1017.90 1017.90 1017.86 1017.86 1017.86 1017.82 1017.78 1017.78 1017.78 1017.66
1018.10 1018.18 1018.34 1018.46 1018.62 1018.70 1018.78 1018.90 1018.98 1019.06 1019.10 1019.18 1019.18 1019.18 1019.22 1019.26 1019.30 1019.30 1019.30 1019.30 1019.34 1019.46 1019.50 1019.50 1019.50 1019.38 1019.34 1019.30 1019.26 1019.18 1019.14 1019.06 1019.06 1019.02 1018.94 1018.90 1018.82 1018.78 1018.74 1018.66 1018.50 1018.42 1018.34 1018.30 1018.26 1018.18 1018.06 1017.98 1017.90 1017.86 1017.82 1017.82 1017.78 1017.78 1017.78 1017.78 1017.78 1017.74 1017.74 1017.74 1017.70 1017.66 1017.62 1017.66 1017.62 1017.62 1017.58 1017.54 1017.38
1018.18 1018.30 1018.42 1018.54 1018.66 1018.78 1018.86 1018.94 1019.02 1019.06 1019.10 1019.18 1019.22 1019.26 1019.30 1019.30 1019.30 1019.30 1019.30 1019.30 1019.34 1019.38 1019.42 1019.42 1019.34 1019.30 1019.22 1019.18 1019.18 1019.10 1019.02 1018.90 1018.90 1018.86 1018.82 1018.78 1018.62 1018.58 1018.50 1018.46 1018.34 1018.26 1018.18 1018.10 1018.06 1017.98 1017.90 1017.82 1017.78 1017.70 1017.66 1017.66 1017.62 1017.62 1017.62 1017.62 1017.62 1017.58 1017.54 1017.54 1017.50 1017.50 1017.50 1017.46 1017.50 1017.46 1017.42 1017.34 1017.22
1018.34 1018.38 1018.50 1018.62 1018.74 1018.82 1018.90 1019.02 1019.06 1019.10 1019.14 1019.18 1019.26 1019.30 1019.30 1019.26 1019.30 1019.30 1019.30 1019.30 1019.34 1019.34 1019.30 1019.26 1019.22 1019.18 1019.10 1019.06 1019.06 1018.98 1018.90 1018.86 1018.78 1018.74 1018.66 1018.62 1018.50 1018.46 1018.38 1018.34 1018.22 1018.14 1018.06 1017.98 1017.90 1017.86 1017.78 1017.70 1017.62 1017.54 1017.50 1017.50 1017.46 1017.42 1017.42 1017.50 1017.46 1017.42 1017.38 1017.34 1017.34 1017.34 1017.34 1017.30 1017.30 1017.30 1017.26 1017.18 1017.14
Wind_Speed
8 7 6 6 6 6 6 5 5 5 6 6 6 6 6 6 6 6 5 5 5 5 5 5 5 5 6 7 8 8 8 7 7 7 7 7 7 7 7 6 6 6 7 7 6 5 5 4 4 3 2 2 2 2 2 2 2 2 2 2 2 2 2 2 3 3 3 3 3
9 7 6 7 6 6 5 5 5 5 5 5 6 6 6 6 6 6 6 6 6 5 5 5 6 6 7 8 9 9 8 8 8 8 8 8 7 7 7 7 7 7 7 7 7 6 5 4 4 3 3 2 2 2 2 2 3 3 3 3 2 2 2 2 3 3 3 3 2
8 7 6 7 6 6 5 5 5 5 6 5 5 5 6 6 6 6 6 6 6 6 5 5 6 7 8 9 9 8 8 8 9 8 8 7 7 7 7 7 7 7 7 7 7 6 5 5 4 4 3 3 3 3 3 3 3 3 3 3 2 2 2 2 3 3 2 2 2
7 7 6 7 7 7 6 5 6 6 6 5 5 5 5 5 5 5 5 6 6 6 5 6 6 7 8 9 9 9 8 9 9 9 8 7 8 8 8 7 7 7 7 7 7 6 6 5 4 4 4 4 4 3 3 3 3 3 3 3 2 2 2 2 2 2 2 2 2
7 6 7 7 8 7 7 6 7 7 6 5 5 5 5 5 4 5 5 6 6 6 6 7 6 7 7 9 9 9 9 9 9 9 8 8 8 8 8 8 8 7 7 7 7 6 6 5 4 3 3 4 3 3 3 3 3 2 2 2 2 2 2 2 2 2 2 2 2
6 6 6 6 7 7 6 6 7 7 6 5 6 6 6 5 5 5 5 6 6 6 7 8 7 7 8 9 9 9 9 9 8 8 8 8 8 8 8 8 8 7 7 7 7 6 6 5 4 3 3 3 3 3 3 3 3 2 2 1 2 2 2 2 2 2 2 2 2
5 6 7 7 7 7 6 6 7 7 6 6 7 7 7 6 6 6 7 6 6 6 7 7 7 7 8 9 9 9 8 8 8 8 8 8 8 8 8 8 8 7 7 7 7 6 5 5 4 3 3 3 2 3 3 3 3 2 2 2 2 2 2 3 2 2 2 3 3
4 5 6 7 7 8 8 8 7 7 6 6 7 8 8 8 7 7 7 6 6 6 6 6 7 8 9 9 9 9 9 8 8 8 8 7 8 8 8 8 8 7 7 7 7 6 5 4 4 3 3 3 3 3 3 3 3 3 3 3 2 2 2 2 2 2 3 4 4
4 5 6 6 7 7 8 8 8 8 7 7 8 8 9 8 8 8 7 6 6 6 6 6 7 8 9 10 9 9 9 8 8 8 7 7 8 8 8 7 7 7 7 7 7 7 6 4 4 3 3 3 3 3 4 4 4 4 4 4 3 2 2 2 2 3 3 4 5
5 5 6 6 6 7 8 8 8 8 8 8 8 8 8 9 8 8 7 6 6 6 6 6 7 8 9 9 9 9 8 8 8 8 8 8 8 8 8 7 7 7 7 6 6 7 6 5 4 4 4 3 4 4 4 4 5 5 4 3 3 3 3 3 3 3 3 4 5
5 5 5 6 6 7 7 7 7 7 8 8 8 8 8 8 8 7 6 6 6 7 7 7 8 9 9 9 8 8 8 7 7 7 8 8 8 8 8 7 7 7 7 7 6 6 6 5 5 5 5 4 4 4 4 4 5 5 4 4 4 4 4 4 4 4 4 4 5
6 5 5 6 6 7 7 7 6 6 7 7 8 8 8 8 8 7 7 7 7 8 7 7 8 9 9 8 8 7 7 7 7 7 7 7 8 8 8 7 7 7 7 7 6 5 5 5 5 6 5 5 4 4 4 4 5 5 5 4 4 5 5 6 5 4 4 4 5
6 6 6 6 6 6 6 6 6 6 6 7 7 7 7 7 7 8 8 8 8 7 7 6 7 8 8 7 7 7 7 7 7 7 7 7 7 7 7 7 7 7 7 7 6 6 5 6 6 6 6 6 5 4 5 5 5 5 5 5 5 6 6 7 6 5 5 5 5
6 6 6 6 6 6 6 6 5 5 6 6 7 7 6 6 7 7 7 8 8 7 6 6 6 6 6 7 7 7 7 7 7 7 7 6 6 7 7 7 7 7 6 6 6 6 6 6 7 7 7 6 6 5 5 5 5 6 6 6 7 7 8 8 7 6 5 6 6
6 6 6 6 6 6 6 6 5 5 5 6 6 6 6 6 6 7 7 7 7 6 6 6 6 6 6 7 7 7 7 7 7 7 7 6 6 6 6 6 7 6 6 6 6 6 7 7 7 7 7 7 6 6 5 5 5 6 6 7 7 8 8 7 7 6 6 6 6
6 7 7 7 7 6 6 6 5 5 5 6 6 6 6 5 6 6 6 7 6 6 6 6 6 5 6 6 7 7 7 6 6 6 6 6 6 6 6 6 6 6 6 6 6 6 6 6 7 7 7 7 7 6 6 5 5 6 6 7 7 7 8 7 7 7 6 7 6
6 7 7 7 7 7 6 6 5 5 5 5 6 6 5 5 5 5 6 7 6 6 6 6 6 5 5 6 6 6 6 6 6 6 6 6 6 6 6 6 6 6 6 6 6 6 6 6 6 6 7 7 7 6 6 6 6 6 6 7 7 7 7 8 7 7 7 7 7
6 7 7 7 7 7 7 6 6 5 5 6 6 5 5 5 5 5 6 6 6 7 7 7 6 6 5 5 5 5 5 5 5 5 5 5 6 6 6 6 6 6 6 6 7 7 7 6 6 6 6 6 6 6 6 6 6 6 7 7 7 7 7 8 8 7 7 8 8
6 6 7 7 7 7 7 7 6 5 5 5 5 5 5 6 6 6 6 6 6 7 8 7 6 6 6 6 5 5 5 5 5 5 5 4 4 5 5 5 5 6 6 6 7 7 7 7 6 6 6 5 5 5 5 6 6 7 7 7 7 8 8 8 8 8 8 8 8
6 6 6 7 7 7 7 6 6 5 4 4 5 5 5 6 6 6 6 6 7 7 8 7 7 6 6 5 5 4 4 3 4 4 4 4 4 4 4 5 5 5 5 5 6 7 7 7 6 6 5 5 5 5 5 6 6 7 7 7 7 8 8 8 8 8 8 8 8
5 5 6 6 6 6 6 6 5 4 4 4 5 6 6 6 6 6 6 6 7 7 7 7 7 7 6 6 5 4 4 3 3 3 3 3 4 4 4 4 4 4 4 4 5 6 6 6 6 5 5 5 5 5 5 6 6 7 7 7 7 8 8 8 8 8 8 9 9
3 4 5 6 6 6 6 5 5 4 4 5 5 6 6 6 6 6 6 6 6 6 6 6 6 7 6 6 6 5 4 3 3 3 3 3 3 4 4 4 4 4 4 4 5 5 6 6 5 5 4 4 5 5 5 6 6 7 7 7 7 8 8 8 8 8 8 9 9
2 3 4 5 5 6 6 5 5 5 5 5 6 6 6 6 6 6 5 5 5 6 5 5 5 6 6 6 5 5 4 3 3 3 3 3 3 4 4 4 5 5 5 5 5 5 5 5 5 5 4 4 5 5 6 6 6 6 7 7 7 8 8 8 8 8 8 9 9
3 4 4 4 5 5 5 5 5 5 5 6 6 6 6 6 6 6 6 6 6 6 5 4 4 5 5 5 5 5 4 4 3 3 3 4 4 4 4 4 5 5 5 5 5 6 6 5 5 5 5 5 5 6 6 6 6 6 7 7 8 8 8 8 8 9 9 10 10
4 4 4 4 5 5 5 5 5 5 6 6 6 6 6 6 6 6 6 6 6 5 5 5 4 4 4 4 4 4 4 4 4 4 4 4 4 4 4 4 5 5 5 5 8 9 10 8 7 6 5 5 6 6 6 6 7 7 7 8 8 9 9 9 10 10 10 11 11
4 4 4 4 4 4 5 5 5 5 5 6 6 6 6 6 6 6 6 5 5 5 4 4 4 4 4 3 3 3 3 4 4 4 5 5 5 5 5 5 5 4 5 6 10 12 13 13 12 10 7 6 6 6 6 6 7 8 8 9 9 9 9 10 10 11 11 11 11
3 3 4 4 4 4 4 4 4 5 5 6 6 6 6 5 6 6 6 5 4 4 4 3 3 3 3 3 3 3 3 3 3 4 4 5 5 5 5 5 5 5 5 8 11 14 15 16 16 14 11 7 6 7 7 7 7 8 8 9 9 9 10 10 11 11 11 11 11
3 3 3 3 3 3 4 4 5 5 6 6 6 5 5 5 6 6 5 5 4 4 3 2 2 2 2 2 3 3 3 3 3 3 4 4 5 6 6 5 5 6 7 10 12 14 16 17 18 17 14 10 7 7 7 7 7 8 8 8 8 9 10 10 10 10 10 11 11
3 3 3 3 3 3 4 4 5 5 5 5 5 5 5 5 5 5 5 4 4 3 3 2 2 2 2 2 2 2 2 3 3 3 4 4 5 6 6 6 6 7 9 12 14 15 16 17 17 18 17 14 9 7 6 7 7 7 7 7 8 8 9 9 9 9 9 10 10
3 3 3 4 4 4 4 4 4 5 5 5 5 5 5 5 5 5 4 4 4 3 3 2 2 2 2 2 2 2 2 3 3 4 4 5 6 7 7 7 7 7 9 12 14 16 16 17 17 18 18 18 13 9 7 7 7 7 7 7 7 8 8 9 9 9 9 9 9
4 4 4 4 4 3 3 3 4 4 5 5 5 5 5 4 4 4 3 3 3 2 2 3 3 2 2 2 2 2 3 3 3 4 5 6 8 8 8 8 8 8 10 12 14 16 17 17 18 18 19 19 15 10 7 7 7 7 7 7 8 8 8 8 8 9 9 9 9
4 4 4 4 3 3 3 3 4 4 5 5 5 4 4 3 3 2 2 2 2 2 2 2 2 2 2 2 2 3 3 4 4 5 6 6 7 7 8 8 8 8 10 12 14 16 17 18 18 19 19 20 16 12 9 9 8 8 8 8 9 9 9 8 8 9 9 10 9
3 3 3 3 3 3 3 3 4 4 5 5 4 4 3 2 2 1 1 2 2 2 2 2 2 2 3 3 3 3 4 4 5 6 7 7 7 7 8 8 8 8 10 13 15 16 17 18 19 20 20 21 17 13 10 9 8 7 7 8 8 9 9 9 9 9 10 10 10
3 3 2 2 3 3 3 3 3 4 4 4 4 3 3 2 2 2 1 1 1 1 2 2 2 2 2 3 3 3 4 5 5 6 6 7 7 7 8 7 7 8 11 14 16 17 18 19 19 20 21 21 16 12 9 9 8 8 8 8 8 8 9 9 10 10 10 10 10
2 2 2 2 3 3 3 3 4 4 4 4 3 3 3 2 2 2 1 1 1 1 1 1 1 1 1 2 2 3 4 5 5 6 6 6 6 7 7 8 7 9 12 15 16 18 19 19 20 21 20 19 13 10 8 8 8 8 9 9 9 9 9 10 9 9 10 10 10
2 2 2 3 3 3 3 4 4 4 4 4 3 3 2 2 1 1 1 1 1 1 0 0 0 1 1 2 3 3 4 5 6 6 6 6 6 7 7 8 8 9 12 15 17 18 19 20 21 21 20 16 10 8 7 8 8 8 8 9 9 9 10 10 9 9 9 9 9
2 3 3 4 4 4 4 4 4 4 3 3 3 2 2 1 1 1 1 1 1 1 0 1 1 1 2 3 4 5 5 6 6 7 8 8 7 8 8 9 9 10 12 14 17 18 20 20 21 20 18 13 9 7 7 7 7 7 8 8 9 9 9 9 9 8 8 8 9
3 3 4 4 4 4 4 4 4 3 3 2 2 2 2 2 1 1 1 2 1 1 1 1 2 2 3 4 4 5 6 6 7 8 8 8 8 8 9 9 9 9 11 13 16 17 19 20 21 20 17 12 8 7 7 6 6 6 7 8 7 8 8 7 7 7 8 8 10
3 4 5 5 5 4 4 4 3 3 2 2 1 1 1 1 1 1 1 1 1 1 1 2 3 4 4 5 5 6 6 7 7 8 8 8 9 9 9 9 9 9 10 12 14 16 18 19 20 20 18 14 10 8 7 6 6 7 7 7 7 7 7 7 6 6 7 8 12
4 4 5 5 4 4 4 3 3 2 2 2 2 2 1 1 1 0 1 1 1 2 2 3 4 5 5 6 6 6 7 7 7 7 8 8 9 10 10 9 9 10 10 12 14 16 17 19 20 21 19 14 10 8 7 6 6 7 7 7 7 7 6 6 6 6 6 7 10
5 5 5 5 4 4 4 3 3 2 2 2 2 2 1 1 0 0 1 1 2 2 3 4 5 6 6 6 6 6 7 7 7 7 7 8 9 10 10 9 10 10 10 11 14 16 18 19 21 21 20 15 10 8 6 6 7 7 8 8 7 7 6 6 6 6 6 6 7
Wind_Direction
194 190 179 168 170 171 171 169 164 163 165 169 169 169 167 166 166 167 168 169 173 175 177 179 180 180 178 175 176 177 178 175 174 174 175 176 176 175 174 171 164 158 153 152 153 156 157 153 149 149 153 158 167 180 187 177 164 164 171 180 188 189 189 194 209 216 219 221 215
194 186 170 162 164 163 162 160 157 158 162 167 167 165 164 164 165 167 168 171 173 174 174 176 177 177 176 176 176 177 177 176 175 175 177 178 177 176 173 170 164 159 155 154 156 159 162 159 153 153 158 163 171 186 198 194 172 171 179 195 197 192 189 196 208 212 214 219 220
191 178 160 156 158 159 157 157 155 156 159 162 161 160 161 163 164 166 169 172 171 170 170 173 176 175 174 174 176 178 178 177 175 176 177 179 177 175 172 169 164 161 158 157 160 163 165 163 158 160 164 170 177 189 200 202 179 175 183 198 197 190 189 200 208 209 210 217 218
183 167 154 155 157 158 157 156 155 155 157 157 155 156 159 163 163 165 167 167 167 169 172 173 174 174 174 173 176 178 179 177 175 175 177 177 176 174 171 168 165 164 163 161 162 164 166 164 162 163 168 172 179 189 198 198 180 177 182 191 186 184 189 204 207 206 208 216 215
176 161 152 156 157 156 154 151 152 154 155 153 153 156 160 162 161 160 161 164 171 173 173 171 172 172 172 172 174 176 177 177 176 176 176 176 175 173 171 168 167 167 166 164 164 165 166 163 162 164 169 173 180 188 191 184 173 174 180 184 179 180 189 202 209 208 208 213 216
166 153 147 151 152 150 149 149 151 152 153 151 154 157 162 164 162 162 164 169 172 171 169 168 168 168 168 169 172 174 176 176 176 175 174 174 173 171 170 170 169 168 167 166 166 166 166 162 162 167 172 175 184 190 188 175 171 174 184 197 194 187 188 199 206 206 206 214 224
153 146 145 150 150 149 149 150 150 150 150 152 157 161 165 166 164 165 166 168 167 166 167 168 167 166 166 168 172 174 175 176 174 173 173 172 171 171 172 172 170 168 168 167 167 168 167 162 163 168 175 179 187 193 192 180 178 183 194 210 209 197 189 200 202 201 206 216 224
142 142 146 150 150 150 150 152 150 150 153 158 164 166 167 166 166 166 165 164 165 166 168 167 166 165 165 169 172 174 174 174 173 173 172 170 171 172 173 172 170 170 169 168 168 169 169 165 165 170 176 180 188 194 194 187 186 190 199 211 216 207 196 200 201 201 206 214 223
143 142 144 147 149 151 153 154 153 155 159 165 169 170 168 167 167 166 166 168 169 167 166 166 165 164 165 168 171 173 174 174 173 173 172 170 171 173 174 173 172 172 171 170 169 170 170 170 172 176 179 182 187 193 193 187 189 195 203 208 216 219 217 211 206 207 209 213 223
153 147 144 146 150 152 154 156 157 158 162 167 171 171 170 169 170 170 170 170 166 165 165 167 164 164 165 169 171 172 173 173 173 173 173 173 174 175 175 175 174 174 173 173 171 170 170 172 178 183 187 185 188 192 193 188 190 198 206 210 214 222 229 231 219 215 217 218 223
160 153 150 152 154 154 156 159 161 162 164 169 172 173 172 172 173 172 170 164 163 166 169 167 164 165 167 170 171 172 172 172 173 174 175 176 177 177 176 176 176 175 174 175 173 172 173 176 182 188 193 194 191 193 194 193 194 201 209 215 216 222 229 236 229 224 222 224 227
163 159 156 157 156 156 158 163 166 166 167 171 174 176 176 175 175 171 167 162 166 169 170 166 165 166 168 170 171 170 170 170 171 173 176 178 177 177 176 177 177 176 176 176 175 175 177 181 185 190 195 200 197 196 195 196 198 205 212 220 220 224 231 236 234 231 229 228 231
165 162 161 159 158 159 162 167 170 171 171 174 177 179 179 177 175 170 165 164 167 168 167 165 165 166 167 168 168 167 168 169 170 173 175 178 177 176 175 177 178 179 179 179 178 179 182 186 188 191 195 201 202 200 198 196 200 206 214 222 225 229 233 236 235 234 233 233 235
166 166 165 163 161 163 167 171 174 174 174 176 180 180 179 177 174 170 165 164 166 165 163 163 165 165 166 165 164 164 165 166 168 170 173 177 177 175 175 178 181 182 183 183 181 182 185 189 191 192 195 201 205 205 202 198 201 206 213 220 226 231 234 236 234 232 232 234 237
169 169 168 164 165 167 171 175 176 176 176 179 181 179 177 175 174 169 164 161 161 159 158 160 164 163 161 159 159 160 161 162 165 168 171 175 177 177 178 181 184 185 187 188 187 187 188 190 192 193 196 200 205 207 207 205 206 209 214 218 224 229 233 235 233 230 229 230 235
173 171 169 166 168 171 174 177 178 178 179 181 181 177 174 173 171 165 160 158 156 153 154 158 160 158 156 155 155 155 157 160 164 167 171 176 179 181 182 184 187 189 191 192 193 193 194 193 192 193 196 200 205 208 210 211 213 216 219 222 225 229 232 233 231 229 228 229 233
177 173 170 169 171 173 177 179 179 180 181 181 179 174 170 167 165 161 157 156 152 151 153 157 156 154 152 152 152 153 155 159 165 170 174 178 181 183 186 189 191 192 193 194 198 200 201 199 195 194 195 199 204 208 212 215 218 221 224 227 228 229 231 233 232 232 232 233 235
182 177 173 172 173 175 177 179 179 179 179 179 176 171 164 159 158 156 154 153 149 150 152 154 152 151 150 151 151 152 155 159 166 172 176 179 181 185 189 193 195 195 195 196 201 204 205 204 199 197 196 199 204 208 212 216 220 225 228 230 232 232 233 234 234 234 235 237 239
188 180 175 174 174 176 177 178 177 176 176 175 171 164 156 151 150 150 150 150 149 149 151 151 150 149 149 149 149 151 153 157 164 171 177 180 182 187 192 196 199 199 198 199 203 206 207 205 201 199 199 202 207 211 215 217 222 226 230 232 234 235 235 235 235 236 236 238 240
192 183 176 173 172 173 174 175 173 172 171 169 162 155 149 146 146 148 149 150 147 147 147 148 148 147 147 146 146 148 150 152 159 167 175 180 185 192 197 200 203 204 202 200 204 207 207 206 204 201 201 202 208 214 218 220 224 228 230 233 235 236 236 236 236 237 237 238 240
193 181 171 167 166 168 170 172 170 168 165 162 155 149 145 143 145 147 148 144 140 140 142 144 146 147 147 146 147 149 151 149 156 166 176 184 193 200 204 205 209 209 206 201 204 206 207 207 206 204 203 204 209 214 219 222 226 229 231 233 235 236 236 237 237 237 238 239 239
186 168 157 156 158 161 164 166 165 164 161 156 150 146 144 143 144 142 138 131 131 134 138 141 143 145 146 148 150 152 153 152 160 170 180 188 199 206 209 209 213 214 212 206 205 206 207 209 208 206 204 207 214 219 222 224 228 231 234 236 238 239 239 239 239 239 240 240 240
152 140 140 146 150 155 158 161 162 160 157 151 147 144 142 141 137 131 125 122 126 130 134 137 139 142 145 148 149 151 153 158 171 183 191 196 204 210 211 210 213 216 216 210 204 202 204 209 211 210 208 210 218 223 227 228 231 235 238 242 244 245 245 245 244 243 244 244 244
120 123 131 139 145 152 156 161 162 159 154 148 145 142 139 136 130 124 122 122 125 127 130 132 135 138 142 145 148 151 156 165 179 193 203 207 210 212 212 211 214 217 217 213 203 199 199 203 210 214 216 216 221 225 229 232 234 237 241 245 248 250 251 250 248 247 247 248 248
113 120 129 137 146 153 158 162 161 157 150 144 140 137 134 131 127 125 124 124 126 127 128 129 132 135 139 144 150 156 163 171 182 194 204 213 215 215 215 215 217 220 221 221 217 214 213 213 211 212 216 220 225 230 233 235 236 237 240 243 245 248 251 252 250 248 247 247 247
111 122 132 142 149 154 158 160 155 147 140 135 134 133 131 129 127 126 126 128 129 129 129 131 134 139 143 147 154 163 172 181 188 195 204 212 217 219 219 220 222 223 225 227 228 228 229 228 225 220 215 214 221 228 233 236 234 235 236 238 240 243 246 249 249 248 246 245 244
108 123 135 141 145 149 150 147 137 131 128 128 130 130 129 127 125 126 128 131 133 132 131 132 139 144 147 148 159 171 184 192 197 203 208 213 218 221 224 226 227 227 226 228 232 235 237 238 237 232 224 209 212 219 227 233 232 232 232 235 236 238 240 244 246 248 248 247 244
105 116 123 125 129 131 130 125 121 122 124 126 128 127 125 122 124 126 130 133 133 133 133 138 142 141 140 145 165 178 189 198 204 211 216 220 225 228 230 233 233 231 229 230 234 238 240 242 243 242 236 221 214 216 222 229 231 232 232 233 235 236 237 240 244 246 247 248 246
93 97 101 104 108 110 112 114 118 121 122 123 122 120 120 121 125 129 132 135 136 139 145 151 141 131 132 154 174 186 196 206 211 216 222 229 234 237 238 239 240 239 237 236 238 241 243 245 246 247 246 241 234 226 224 229 233 235 235 235 235 236 237 239 242 244 246 247 247
80 84 88 94 97 101 106 113 117 119 118 117 115 116 117 121 127 133 137 141 146 152 155 149 138 142 155 173 180 193 208 218 219 221 225 231 237 240 242 242 242 242 242 242 244 245 247 247 248 250 251 251 250 246 239 238 238 239 239 240 239 239 239 241 243 244 246 247 248
78 83 88 93 97 102 108 113 113 114 115 114 115 117 120 125 133 139 145 149 152 152 146 136 141 156 173 182 188 202 216 225 226 226 228 232 238 241 243 244 243 243 244 245 247 249 251 252 253 254 255 256 256 254 250 246 245 243 242 242 241 240 241 243 245 246 247 248 250
81 86 92 97 103 108 112 113 112 113 115 116 118 120 124 129 137 143 144 142 137 134 133 135 150 168 186 198 206 215 224 229 231 231 232 233 239 242 245 246 245 244 244 245 249 251 253 255 257 258 259 259 259 258 254 251 249 247 245 243 242 241 241 244 247 248 249 250 251
86 90 96 103 111 115 116 112 110 112 114 117 119 121 123 124 120 117 115 117 121 129 138 150 165 182 197 209 218 228 233 235 236 238 238 238 240 243 246 248 248 246 247 248 251 254 256 258 259 260 261 262 262 260 256 253 252 250 248 246 244 242 242 243 246 248 249 250 250
95 97 100 108 113 114 111 105 105 106 109 110 112 113 113 110 104 102 102 108 118 129 142 158 174 189 202 210 220 232 240 244 243 243 243 242 243 245 247 249 249 249 250 253 255 257 259 261 262 263 264 264 264 261 256 253 253 252 250 249 248 246 244 244 245 246 247 248 250
109 110 108 107 107 104 101 96 95 97 98 99 100 99 98 99 108 119 130 133 118 113 124 166 186 205 223 232 236 242 249 254 255 254 252 250 249 250 251 253 253 253 254 256 259 261 262 264 265 266 266 266 265 261 257 254 254 253 251 251 250 249 248 248 247 246 246 246 248
123 121 114 106 101 97 94 91 88 88 88 92 94 94 95 101 120 143 151 135 116 104 95 276 281 270 265 262 258 255 254 257 260 261 260 258 257 257 258 259 259 258 258 259 261 263 265 266 267 267 268 267 265 261 257 255 255 253 252 252 252 251 250 250 250 249 247 246 246
131 123 114 105 101 97 93 90 87 87 90 96 104 114 126 141 165 172 152 122 110 109 233 273 265 260 256 256 256 254 253 251 255 259 261 260 259 259 261 263 263 262 261 262 263 265 266 267 268 269 269 269 266 262 260 258 257 255 254 254 253 252 251 252 252 251 249 247 246
127 117 111 105 103 100 96 93 95 100 108 120 133 145 152 154 163 161 131 116 120 148 234 257 251 249 249 250 254 254 253 250 250 253 257 259 258 258 260 263 264 263 262 262 264 265 267 268 270 270 271 271 267 265 263 261 260 258 257 256 257 255 252 253 254 253 252 248 250
117 111 108 108 108 108 107 107 111 120 129 135 132 126 119 112 115 120 123 127 145 176 219 244 248 249 250 252 256 259 258 254 251 251 254 258 258 258 260 262 264 264 264 263 264 266 268 270 271 272 272 272 270 267 266 265 263 261 260 259 260 259 256 254 254 255 255 252 256
94 95 98 104 107 109 109 108 110 111 108 96 78 65 62 69 83 122 157 160 177 199 221 238 247 251 253 255 258 261 263 263 258 256 256 258 262 263 264 265 268 269 269 268 269 270 271 273 273 274 274 273 270 268 266 265 265 264 263 261 261 262 261 258 256 256 258 258 260
64 67 71 75 77 78 78 75 72 68 66 67 65 62 57 63 138 203 211 212 216 222 231 241 249 253 255 256 258 262 265 268 266 263 262 263 267 269 270 271 273 274 274 274 274 274 275 275 275 275 275 274 270 266 263 262 263 263 262 261 260 260 262 263 261 259 259 261 263